Dewpoint
51 52 44 31 19 20 18 18 20 21 28 50 53 50 49 51 44 34 61 62 66 67 67 66 68 68 67 66 67 67 66 67 67 67 67 66 66 65 64 64 64 63 62 61 61 61 61 61 60
42 42 33 25 16 13 14 18 16 34 43 46 49 51 49 49 56 58 59 61 64 67 66 66 67 67 67 67 67 67 68 68 67 67 66 66 65 64 65 64 64 63 62 61 61 62 62 61 62
39 31 24 20 17 14 15 17 17 36 43 47 48 51 52 49 54 57 58 61 64 67 66 67 66 65 66 67 67 67 68 67 67 67 66 65 64 64 64 64 64 63 62 61 61 62 62 62 62
36 29 23 20 16 17 17 18 19 37 41 44 46 42 54 58 56 60 58 63 63 64 65 67 65 65 64 64 66 67 67 67 67 66 65 64 63 64 64 63 63 61 58 56 57 61 63 62 61
30 23 18 17 18 19 19 19 29 38 42 42 46 43 49 58 61 62 61 63 62 62 64 66 65 63 63 63 64 65 66 67 66 65 65 64 63 63 63 63 61 58 58 59 62 62 62 61 60
25 23 19 15 17 19 20 26 41 41 43 43 42 46 53 59 59 61 62 61 63 61 62 65 65 64 63 61 60 62 63 66 65 65 64 63 62 62 63 61 59 60 63 63 63 62 61 60 59
23 21 18 19 18 17 23 39 39 42 43 44 48 42 51 56 59 61 61 61 64 64 62 62 63 64 63 61 60 61 62 65 65 65 64 63 63 62 61 59 58 60 63 62 61 60 59 59 58
25 22 20 19 16 14 22 38 46 44 40 52 48 43 46 55 60 61 61 62 63 63 64 62 63 63 61 60 57 58 60 60 65 65 65 64 63 61 58 57 57 57 59 60 60 59 59 58 58
23 19 17 17 15 15 34 35 45 48 47 51 54 55 55 56 60 60 60 61 61 61 62 63 63 60 59 57 59 59 57 62 65 65 64 63 61 59 56 56 57 55 56 58 60 60 59 58 58
21 19 17 18 16 17 25 34 40 44 44 48 53 55 57 58 59 58 58 58 58 59 60 62 62 61 59 59 57 56 57 61 64 64 63 61 59 56 55 56 55 54 55 58 60 60 58 57 56
20 19 19 18 19 19 22 40 46 42 38 42 47 53 56 57 57 57 57 58 58 58 59 59 59 58 59 60 58 58 59 58 61 62 61 59 57 58 57 56 54 53 51 50 52 52 51 53 53
18 18 18 20 21 25 33 44 43 41 41 45 49 55 55 55 56 56 56 57 57 57 58 58 57 56 57 59 59 58 59 58 59 61 59 58 58 55 54 51 49 46 46 45 44 46 48 49 50
17 20 24 24 24 26 43 42 44 46 50 52 54 55 55 54 55 56 56 57 58 57 58 58 57 56 55 56 58 58 58 58 59 59 58 57 56 54 52 50 47 45 46 45 42 41 44 47 48
24 24 24 23 22 45 40 46 49 48 53 52 55 53 54 54 54 54 54 55 56 57 57 59 58 57 57 56 57 57 58 59 59 58 57 56 54 53 50 49 46 44 46 46 43 40 41 44 45
25 22 21 20 21 36 45 40 41 49 52 51 53 52 53 54 54 53 54 54 55 56 58 57 58 58 57 57 57 58 58 57 58 57 56 55 54 52 50 48 45 44 47 46 44 42 39 41 41
22 21 17 20 30 33 39 21 32 51 51 50 52 51 51 52 51 54 54 54 54 55 56 57 58 58 58 58 57 57 57 56 57 56 55 54 53 52 50 48 46 45 48 47 45 43 39 37 38
21 15 16 17 22 31 32 27 37 52 51 50 51 51 50 50 50 52 53 54 54 54 55 56 57 57 57 57 56 55 55 56 55 56 55 53 53 52 50 48 48 47 47 49 46 45 42 38 36
16 17 19 17 22 30 31 29 34 50 51 50 50 51 51 50 50 51 53 53 54 54 54 55 56 56 56 56 55 54 52 50 53 55 55 54 53 53 52 51 50 49 49 50 48 45 44 42 38
18 19 18 18 20 20 20 22 23 45 51 51 49 48 49 51 51 51 51 53 53 54 54 54 55 56 55 55 53 53 52 49 48 50 54 55 54 55 54 54 54 53 51 50 49 46 44 42 39
20 19 17 18 21 21 22 24 30 39 45 50 49 48 47 49 51 51 50 52 52 52 53 53 54 54 55 55 55 52 53 50 48 48 50 54 55 56 56 55 55 54 53 51 49 47 44 42 40
22 20 18 16 21 24 28 25 29 35 41 47 49 48 47 47 50 50 50 50 51 51 52 52 53 53 54 54 54 50 50 49 48 48 48 50 52 54 55 55 55 54 53 51 49 47 44 43 41
19 23 21 21 21 20 27 19 21 25 33 40 44 48 47 45 49 51 50 49 49 50 51 52 52 53 52 52 51 49 49 49 48 46 47 48 50 51 53 55 55 55 53 52 50 48 44 42 41
20 23 22 23 23 22 21 22 20 32 25 29 36 43 48 46 47 50 51 50 50 50 51 51 51 52 52 51 50 49 49 48 47 46 46 47 49 51 52 54 55 55 54 53 52 50 46 44 43
25 24 25 25 24 20 21 19 19 21 23 24 30 38 43 47 47 49 51 51 50 50 50 50 50 51 51 50 50 49 48 48 47 47 46 47 49 51 52 54 55 55 55 54 53 52 50 49 47
24 22 20 18 19 19 21 20 20 21 22 26 25 31 39 45 47 49 50 50 50 49 49 50 50 50 50 50 49 49 48 48 47 47 47 47 48 49 52 54 54 55 55 55 54 53 52 51 49
24 23 20 17 16 16 25 20 21 26 26 26 31 33 36 41 46 48 50 49 50 49 49 49 49 49 50 50 49 49 48 47 47 47 47 48 50 51 52 53 54 54 55 55 54 54 53 52 51
25 22 23 20 25 21 20 24 26 27 27 28 28 29 32 40 45 47 49 49 49 49 48 48 48 49 49 49 49 49 48 48 47 47 48 50 52 52 53 54 54 54 55 55 55 54 54 53 53
24 24 21 22 17 17 20 24 18 22 24 25 23 25 31 40 44 47 48 49 50 49 48 48 48 47 48 48 48 48 49 49 49 49 49 50 52 53 53 54 55 55 56 56 56 56 55 54 53
22 22 22 22 21 17 16 17 26 21 22 23 26 27 28 36 41 45 48 49 50 50 48 47 47 47 47 47 48 48 49 49 50 49 50 52 53 53 54 54 55 56 56 56 55 55 53 51 51
22 21 22 20 19 25 21 18 23 26 26 29 28 29 30 33 38 42 46 48 49 50 49 48 47 46 46 46 47 48 49 51 50 50 50 51 51 54 54 55 55 55 56 53 53 52 51 50 49
Wind_Speed
1 4 3 5 3 5 3 5 4 10 3 5 5 2 6 4 2 2 3 2 5 21 19 17 21 22 19 16 17 29 31 33 27 26 25 26 25 25 26 28 28 29 30 30 31 31 29 29 27
5 4 5 3 5 3 6 5 8 6 5 10 6 3 5 5 5 2 3 7 4 16 18 19 21 23 20 18 17 25 29 30 27 26 25 25 24 25 26 28 29 29 29 29 30 29 27 27 26
4 3 3 4 4 3 6 7 9 5 3 3 3 1 2 4 1 3 2 6 5 17 17 15 23 23 21 18 18 20 24 31 25 25 25 24 24 25 28 28 29 28 27 27 25 23 24 25 24
3 3 5 2 6 9 9 10 10 6 4 4 1 5 2 2 3 3 3 4 8 7 15 19 21 25 24 21 16 20 23 28 27 24 24 23 24 25 27 28 27 27 26 25 25 24 28 26 25
4 4 3 2 6 6 9 13 8 5 3 2 2 4 3 2 5 3 3 1 10 9 11 17 21 25 24 23 19 17 18 24 27 23 25 24 23 24 26 27 25 24 21 23 28 30 29 26 25
4 3 2 5 5 6 9 7 6 3 4 4 2 2 2 2 6 9 4 3 4 13 10 16 22 24 23 23 20 16 20 21 34 24 23 24 23 24 25 26 25 21 22 29 29 28 27 25 25
5 4 3 3 6 7 4 4 3 4 6 5 1 3 2 3 3 5 3 2 3 10 16 11 18 20 26 25 24 22 26 27 26 25 22 22 21 24 25 25 25 24 26 29 28 27 26 25 25
6 4 2 5 3 8 4 4 1 5 5 3 3 4 3 2 3 4 2 5 4 7 10 17 18 22 23 23 27 20 24 30 30 24 21 20 21 23 24 25 25 25 26 26 26 26 25 25 23
4 2 5 4 3 5 4 5 2 1 4 2 2 2 1 1 2 4 4 7 7 7 10 16 20 23 23 25 24 22 17 29 27 23 19 18 14 16 17 23 25 24 24 24 23 24 24 22 21
4 4 7 8 7 13 6 9 5 2 6 4 3 2 4 3 2 6 5 10 10 9 9 11 19 18 24 22 24 19 18 16 22 21 16 14 16 16 16 21 25 22 21 23 25 25 24 17 14
7 7 7 15 18 18 15 6 5 4 9 6 4 11 9 7 6 5 4 5 8 9 12 13 15 17 17 18 21 17 17 27 23 18 16 14 14 12 14 17 16 16 18 15 18 17 16 19 16
5 10 8 11 4 4 6 6 5 10 4 3 4 11 6 4 5 7 8 6 13 11 13 11 17 20 19 15 15 14 9 12 13 16 16 13 12 15 15 17 16 17 13 18 15 15 16 14 13
8 8 5 10 17 8 8 9 8 10 3 3 10 7 8 6 5 3 7 7 12 14 13 15 19 18 20 20 15 15 12 16 12 12 16 12 12 14 15 15 16 14 13 18 18 16 16 15 14
5 8 13 7 11 4 8 3 2 8 8 8 8 8 8 9 7 7 5 8 9 12 15 15 17 18 19 18 18 15 13 10 9 10 14 14 12 14 16 16 16 14 14 15 18 17 16 15 14
4 8 11 9 4 4 5 9 17 7 11 10 10 9 8 7 8 7 9 8 7 6 13 14 16 20 20 17 15 11 12 13 12 11 15 14 14 17 17 17 17 15 13 16 15 13 13 14 11
2 1 6 2 4 2 9 20 2 14 17 13 11 10 9 8 7 8 10 9 8 7 7 14 13 13 14 15 13 11 14 20 16 11 12 15 14 14 16 17 15 14 13 14 16 14 13 13 14
2 9 8 6 3 4 6 14 2 11 14 14 14 12 10 10 9 7 9 11 9 10 12 11 14 14 13 10 13 15 13 18 14 12 11 13 14 15 16 15 14 15 13 12 14 10 10 13 10
8 8 6 8 3 3 6 21 11 16 16 16 14 14 14 13 13 11 10 11 12 11 11 11 14 15 13 10 12 12 12 7 16 11 13 14 14 15 13 11 14 13 12 11 12 14 7 7 11
6 3 6 11 5 6 17 21 27 14 17 18 18 17 18 17 12 13 10 10 11 12 12 14 13 16 16 12 11 14 15 10 9 8 8 15 14 13 13 12 11 12 14 14 14 8 12 7 9
8 10 15 18 7 5 17 22 15 10 15 20 21 20 20 13 15 17 14 13 13 14 14 14 16 15 16 12 10 6 10 4 8 6 9 12 14 12 10 11 13 14 14 12 15 13 7 6 14
12 16 12 14 8 6 8 12 12 6 12 11 18 17 16 21 20 18 20 18 15 17 17 17 17 18 17 15 10 9 8 3 6 9 9 13 11 12 11 12 13 15 14 16 16 16 16 16 14
22 16 17 13 6 8 3 11 17 11 14 13 19 20 22 22 18 20 22 21 22 20 16 17 17 19 18 19 17 18 20 25 20 15 13 15 16 14 15 13 13 15 15 16 17 16 15 12 17
14 9 14 12 9 7 6 6 8 6 14 17 19 25 23 23 24 25 26 25 22 20 20 19 19 20 22 18 21 20 18 19 15 13 14 14 12 14 14 16 12 13 16 18 17 14 19 15 11
4 5 5 3 3 11 12 13 12 11 14 14 14 19 23 22 23 22 19 21 21 20 20 20 22 21 21 20 19 22 23 19 18 18 17 16 13 14 16 17 16 16 16 17 17 17 17 18 15
8 5 4 4 9 13 7 11 18 12 21 22 19 17 20 21 22 22 25 25 24 26 25 24 24 25 23 23 24 24 23 23 24 22 19 19 18 16 13 14 15 14 16 16 14 14 15 15 18
11 12 8 9 9 5 3 8 7 18 20 15 13 18 11 19 22 25 27 26 27 28 28 27 27 26 26 26 27 24 22 20 21 19 18 17 17 14 11 13 15 16 13 12 14 13 14 13 15
7 9 12 7 0 5 6 7 10 10 13 12 17 18 20 17 23 26 23 26 26 28 31 32 27 26 27 27 25 25 23 25 21 20 15 16 15 15 16 16 15 15 15 17 16 15 13 14 16
13 8 5 3 6 11 6 5 10 5 17 18 17 18 19 14 17 19 22 24 24 26 27 27 30 32 26 25 25 24 23 20 18 14 19 20 18 18 17 16 16 17 18 18 20 17 16 20 19
5 15 4 4 6 6 7 7 13 21 18 12 14 15 13 16 21 21 21 22 23 18 24 28 28 28 29 28 27 25 22 23 22 23 24 19 24 23 20 19 18 17 19 19 20 14 13 18 18
6 5 7 17 11 7 7 14 3 13 11 11 13 15 16 13 21 20 22 19 20 22 22 26 24 27 29 27 25 26 26 24 23 24 27 35 24 17 21 20 21 23 21 16 18 18 16 18 19
Wind_Direction
185 131 82 38 56 46 295 261 262 301 305 336 346 289 302 357 174 209 131 222 215 152 149 143 127 128 137 133 134 128 128 128 137 135 136 133 135 133 131 126 122 120 119 120 116 112 109 109 107
137 102 58 82 76 6 295 249 261 280 257 283 295 346 327 311 351 356 130 193 186 149 146 146 132 125 123 126 130 134 134 132 135 134 136 135 136 135 133 127 122 122 124 124 121 117 104 109 107
133 85 101 87 112 252 269 233 262 265 220 254 275 51 228 227 251 197 278 174 170 143 136 152 134 130 125 124 132 134 133 131 136 137 138 137 140 140 134 129 126 127 128 127 125 120 113 112 108
163 49 59 96 255 259 239 260 283 286 252 189 96 267 290 0 344 24 326 179 169 122 138 146 138 133 132 129 131 137 140 136 137 139 137 140 145 141 134 129 127 127 128 128 124 123 122 115 112
51 68 93 246 257 258 254 258 220 243 278 294 104 276 252 10 331 18 309 270 192 168 151 150 148 141 140 137 136 140 147 141 131 140 141 146 143 140 133 128 125 122 125 127 125 121 121 121 118
79 92 123 239 246 264 270 233 200 238 261 285 271 259 225 23 335 333 351 273 197 177 172 173 157 144 141 139 140 151 167 155 133 145 146 143 142 136 129 124 119 115 121 126 126 124 122 121 119
149 123 210 257 290 306 267 147 216 253 252 270 154 246 268 280 345 319 3 214 214 201 196 191 164 162 145 147 156 173 171 157 134 143 145 141 137 129 127 122 118 118 122 124 126 126 124 124 123
122 115 173 231 236 280 292 176 250 215 265 95 149 252 274 287 23 105 136 167 87 119 178 179 153 142 143 151 157 183 191 165 133 143 140 135 132 130 125 123 120 118 122 125 128 128 127 125 123
134 121 231 243 208 265 180 216 192 319 265 172 180 271 224 260 139 125 133 116 123 72 101 146 151 150 149 157 173 172 172 158 136 134 135 128 127 127 126 125 121 119 119 120 132 132 125 124 122
164 186 223 213 222 265 244 218 209 219 261 213 176 160 177 195 237 182 149 140 131 126 117 129 136 150 157 171 165 160 175 175 149 140 136 133 136 136 133 124 124 121 111 112 122 126 126 121 125
180 227 237 268 260 257 268 216 158 204 266 237 207 185 175 170 129 135 131 91 119 120 123 123 128 133 155 156 157 175 178 178 150 134 140 141 139 134 126 121 123 123 112 110 118 124 129 133 133
206 238 243 284 281 282 230 145 204 210 240 329 149 168 179 159 159 160 146 119 128 123 128 117 126 133 136 134 141 144 149 166 167 144 139 148 142 139 132 129 132 127 126 124 121 128 131 130 132
223 268 238 268 297 245 164 210 223 229 211 100 130 153 164 155 146 132 143 146 137 150 145 139 134 134 146 147 151 148 156 166 160 148 145 157 156 151 140 141 134 133 128 124 121 125 132 138 139
208 246 285 288 285 215 206 206 153 223 164 142 160 188 179 156 159 144 177 164 156 159 163 150 145 145 156 159 163 166 167 170 149 162 155 162 162 153 146 147 141 143 140 135 134 136 138 149 145
231 288 308 280 271 236 137 259 237 186 174 171 191 210 191 155 160 186 176 187 167 140 165 163 153 153 160 161 159 165 164 167 197 172 162 160 158 159 155 154 155 159 149 139 127 127 130 140 151
266 3 283 285 137 245 176 277 255 169 175 195 199 213 204 179 192 185 169 165 173 142 163 165 160 137 142 144 130 149 165 177 193 165 168 165 163 162 162 164 167 163 150 148 141 145 148 157 163
334 255 245 299 212 172 192 279 26 177 190 206 198 206 212 196 197 191 170 155 162 167 166 162 159 161 139 140 129 137 155 176 152 153 162 168 166 171 172 173 175 163 158 158 151 161 155 165 163
221 234 246 252 193 183 216 262 257 194 205 222 213 204 211 206 203 189 180 165 160 164 163 162 162 158 151 137 136 129 128 126 147 160 173 176 176 183 180 181 178 161 174 169 167 169 167 177 171
158 209 290 274 260 320 286 288 281 203 215 226 228 212 209 214 197 182 183 169 160 164 169 169 156 161 164 168 155 155 159 140 133 169 190 171 185 187 188 197 173 172 195 199 179 162 187 181 164
214 252 270 291 287 201 300 297 285 216 232 224 221 227 215 194 188 183 185 180 180 174 176 174 170 158 169 174 182 152 155 140 133 175 201 194 189 179 204 201 195 196 198 197 188 185 177 184 176
224 225 237 244 326 280 278 292 286 266 239 231 225 226 224 204 191 187 187 189 189 184 180 177 181 175 179 187 176 130 128 134 143 205 213 224 202 187 206 217 207 203 202 210 203 197 195 200 197
233 210 237 253 278 281 134 291 284 273 259 242 241 226 224 214 192 184 189 193 197 196 182 181 179 180 185 187 187 186 191 198 204 203 194 201 209 211 208 225 219 212 209 214 213 204 201 185 204
228 178 215 236 241 273 260 244 255 309 280 269 251 236 226 212 198 195 191 189 192 188 188 183 185 189 187 187 191 194 196 208 217 222 227 231 216 220 220 225 226 217 212 218 213 204 210 205 197
150 203 218 231 221 252 232 212 263 223 244 261 269 241 227 214 203 201 188 176 179 175 182 188 191 193 194 191 194 200 205 207 222 231 235 241 234 222 223 225 225 227 225 221 220 215 209 214 217
190 154 229 225 217 244 212 202 239 248 246 248 257 265 231 212 199 191 185 183 178 181 185 187 194 202 200 199 200 201 204 207 218 223 229 235 239 243 230 217 221 223 230 227 215 206 215 214 222
189 180 178 216 230 250 139 230 243 233 247 257 264 267 269 213 199 197 192 188 184 183 184 191 195 198 200 204 208 208 210 211 220 221 223 222 226 225 221 225 225 228 230 220 203 207 214 214 221
196 207 224 265 122 283 241 263 290 263 259 257 264 279 267 225 202 202 193 188 187 186 188 191 193 200 202 203 206 209 210 213 216 218 218 225 225 221 218 222 230 230 220 205 203 207 204 219 233
220 156 163 175 236 249 235 235 223 217 231 251 265 271 269 233 216 204 199 196 193 194 193 191 195 199 199 203 205 208 209 209 214 209 221 226 230 232 229 227 224 221 211 207 213 228 227 226 241
181 238 250 203 198 251 256 250 222 234 226 258 276 279 272 241 229 213 207 203 200 192 191 196 198 197 199 200 202 205 205 202 199 207 216 224 234 220 221 222 218 219 216 217 220 223 199 207 219
294 271 221 236 253 240 262 247 256 241 231 223 269 282 283 248 229 222 212 199 195 198 199 201 196 200 205 200 198 203 206 210 215 218 214 223 233 213 214 213 214 223 227 209 200 212 209 210 221